[Iaude] MPEC K71: 2017 BK232 [a=46.21,e=0.11,i=18.0,H=8.43]
    mpec at cfa.harvard.edu 
    mpec at cfa.harvard.edu
       
    Thu May 23 13:10:21 EDT 2024
    
    
  
M.P.E.C. 2024-K71                                  Issued 2024 May 23, 17:08 UT
     The Minor Planet Electronic Circulars contain information on unusual
         minor planets, routine data on comets and natural satellites,
         and occasional editorial announcements.  They are published
    on behalf of Division F of the International Astronomical Union by the
          Minor Planet Center, Smithsonian Astrophysical Observatory,
                          Cambridge, MA 02138, U.S.A.
			  
             Prepared using the Tamkin Foundation Computer Network
                              MPC at CFA.HARVARD.EDU
            URL https://www.minorplanetcenter.net/    ISSN 1523-6714
                                   2017 BK232                                   
Additional Observations:
     K17BN2K 1C2016 04 02.38997212 19 19.93 -00 12 44.0                WEK071T09
     K17BN2K 1C2016 04 02.51519612 19 19.36 -00 12 41.0                WEK071T09
     K17BN2K 1C2016 06 05.33916012 15 58.85 +00 02 33.7                WEK071T09
     K17BN2K 1C2017 02 23.52165912 26 11.34 -01 21 50.2                WEK071T09
     K17BN2K 1C2017 02 23.59537412 26 11.05 -01 21 48.7                WEK071T09
Observer details:
T09 Subaru Telescope, Maunakea.  Observer .  Measurer S. Deen.  8.3-m Subaru
    Telescope + CCD.
Orbital elements:
2017 BK232                                                                      
Epoch 2024 Mar. 31.0 TT = JDT 2460400.5                 Alexandersen            
M 324.25448              (2000.0)            P               Q                  
n   0.00313789     Peri.  229.72257     -0.51138982     +0.85769806             
a  46.2073183      Node     9.94776     -0.66482351     -0.35561393             
e   0.1149750      Incl.   17.95022     -0.54450909     -0.37133917             
P 314              H    8.43          G   0.15           U   7                  
Residuals in seconds of arc
160402 T09  0.0   0.0     170123 T09  0.0   0.1+    170128 T09  0.0   0.0
160402 T09  0.0   0.0     170123 T09  0.1+  0.1+    170128 T09  0.0   0.1+
160605 T09  0.0   0.0     170123 T09  0.1-  0.0     170223 T09  0.1+  0.1-
170123 T09  0.1+  0.1+    170128 T09  0.0   0.1-    170223 T09  0.1-  0.2-
Ephemeris:
2017 BK232               a,e,i = 46.21, 0.11, 18                 q = 40.8946
Date    TT    R. A. (2000) Decl.     Delta      r    Elong.  Phase     V
2024 04 23    12 51 17.0 -07 20 12  41.1765 42.1316   161.6     0.4    24.7
...
2024 05 08    12 50 16.2 -07 14 43  41.2806 42.1285   146.8     0.8    24.8
...
2024 05 16    12 49 48.2 -07 12 11  41.3594 42.1269   138.9     0.9    24.8
...
2024 05 22    12 49 29.8 -07 10 31  41.4278 42.1257   133.1     1.0    24.8
2024 05 23    12 49 26.9 -07 10 16  41.4399 42.1255   132.1     1.0    24.8
2024 05 24    12 49 24.2 -07 10 01  41.4522 42.1253   131.1     1.0    24.8
...
2024 05 30    12 49 09.0 -07 08 41  41.5299 42.1240   125.3     1.1    24.8
...
2024 06 07    12 48 53.0 -07 07 18  41.6428 42.1224   117.6     1.2    24.8
...
2024 06 22    12 48 36.9 -07 06 06  41.8758 42.1194   103.2     1.3    24.8
M. P. C. Staff               (C) Copyright 2024 MPC           M.P.E.C. 2024-K71
    
    
More information about the Iaude
mailing list